Location: Newark
(46.7636°N, 1.8358°W)
Time: 10:45:15
(UTC+00:00)

Transit 2A Rocket - All Passes

Search period start: 16 October 2019 00:00
Search period end: 26 October 2019 00:00
Orbit: 593 x 910 km, 66.7° (Epoch: 15 October)

Date Brightness Start Highest point End Pass type
(mag) Time Alt. Az. Time Alt. Az. Time Alt. Az.
16 Oct - 04:38:36 10° SE 04:41:13 14° ESE 04:43:44 10° ENE visible
16 Oct - 06:18:04 10° SW 06:23:13 86° NW 06:27:56 10° NNE daylight
16 Oct - 08:03:06 10° W 08:06:24 18° NW 08:09:33 10° N daylight
16 Oct - 13:16:58 10° NNW 13:20:27 23° NE 13:23:53 10° E daylight
16 Oct - 14:59:03 10° NW 15:03:16 53° WSW 15:07:29 10° SSE daylight
17 Oct - 05:35:41 10° SSW 05:40:44 57° ESE 05:45:22 10° NE visible
17 Oct - 07:19:26 10° W 07:23:33 25° NW 07:27:26 10° NNE daylight
17 Oct - 12:34:55 10° N 12:37:34 16° NE 12:40:11 10° ENE daylight
17 Oct - 14:16:27 10° NNW 14:20:48 85° ENE 14:25:08 10° SE daylight
17 Oct - 16:01:29 10° W 16:02:37 11° WSW 16:03:44 10° WSW daylight
18 Oct - 04:53:43 10° S 04:58:19 33° ESE 05:02:35 10° NE visible
18 Oct - 06:36:08 10° WSW 06:40:49 38° NW 06:45:11 10° NNE daylight
18 Oct - 08:24:12 10° NNW 08:24:38 10° NNW 08:25:03 10° NNW daylight
18 Oct - 11:53:20 10° N 11:54:35 11° NNE 11:55:49 10° NE daylight
18 Oct - 13:34:01 10° NNW 13:38:13 49° NE 13:42:25 10° SE daylight
18 Oct - 15:17:15 10° WNW 15:20:24 20° WSW 15:23:35 10° SSW daylight
19 Oct - 04:12:19 10° SSE 04:15:59 20° ESE 04:19:27 10° ENE visible
19 Oct - 05:53:10 10° SW 05:58:11 62° NW 06:02:49 10° NNE visible
19 Oct - 07:39:06 10° WNW 07:41:36 14° NNW 07:44:03 10° N daylight
19 Oct - 12:51:42 10° NNW 12:55:32 30° NE 12:59:22 10° ESE daylight
19 Oct - 14:34:09 10° NW 14:38:06 35° WSW 14:42:05 10° S daylight
20 Oct - 03:32:13 10° ESE 03:33:45 11° ESE 03:35:14 10° E visible
20 Oct - 05:10:33 10° SSW 05:15:39 80° ESE 05:20:19 10° NE visible
20 Oct - 06:55:08 10° W 06:58:41 20° NW 07:02:05 10° N daylight
20 Oct - 12:09:31 10° N 12:12:45 20° NE 12:15:57 10° E daylight
20 Oct - 13:51:25 10° NW 13:55:42 65° WSW 14:00:00 10° SSE daylight
21 Oct - 04:28:18 10° S 04:33:11 47° ESE 04:37:42 10° NE visible
21 Oct - 06:11:36 10° WSW 06:15:53 29° NW 06:19:55 10° NNE daylight
21 Oct - 11:27:34 10° N 11:29:49 14° NNE 11:32:04 10° ENE daylight
21 Oct - 13:08:53 10° NNW 13:13:12 71° NE 13:17:32 10° SE daylight
21 Oct - 14:52:59 10° WNW 14:55:08 14° WSW 14:57:20 10° SW daylight
22 Oct - 03:46:30 10° S 03:50:48 28° ESE 03:54:49 10° NE visible
22 Oct - 05:28:24 10° WSW 05:33:11 45° NW 05:37:38 10° NNE visible
22 Oct - 07:15:28 10° NW 07:16:52 11° NNW 07:18:15 10° N daylight
22 Oct - 12:26:29 10° NNW 12:30:35 41° NE 12:34:42 10° ESE daylight
22 Oct - 14:09:24 10° WNW 14:12:54 24° WSW 14:16:27 10° SSW daylight
23 Oct - 03:05:24 10° SSE 03:08:30 16° ESE 03:11:28 10° ENE visible
23 Oct - 04:45:33 10° SW 04:50:36 74° NW 04:55:14 10° NNE visible
23 Oct - 06:31:01 10° WNW 06:33:52 16° NW 06:36:39 10° N daylight
23 Oct - 11:44:12 10° NNW 11:47:52 26° NE 11:51:30 10° E daylight
23 Oct - 13:26:27 10° NW 13:30:33 44° WSW 13:34:43 10° S daylight
24 Oct - 04:03:03 10° SSW 04:08:05 67° ESE 04:12:42 10° NE visible
24 Oct - 05:47:12 10° W 05:51:00 22° NW 05:54:36 10° N visible
24 Oct - 11:02:06 10° N 11:05:02 17° NE 11:07:57 10° E daylight
24 Oct - 12:43:48 10° NW 12:48:07 80° WSW 12:52:30 10° SSE daylight
25 Oct - 03:20:57 10° S 03:25:39 39° ESE 03:30:00 10° NE visible
25 Oct - 05:03:47 10° WSW 05:08:14 33° NW 05:12:23 10° NNE visible
25 Oct - 10:20:18 10° N 10:22:05 12° NNE 10:23:52 10° NE daylight
25 Oct - 12:01:19 10° NNW 12:05:35 58° NE 12:09:53 10° SE daylight
25 Oct - 13:44:52 10° WNW 13:47:40 17° WSW 13:50:29 10° SSW daylight
